Regional Weather Roundup
Issued by NWS

Home | Current Version | Previous Version | Text Only | Print | Product List | Glossary On
Versions: 1 2 3 4 5 6 7 8 9 10 11 12 13 14 15 16 17 18 19 20 21 22 23 24 25 26 27 28 29 30 31 32 33 34 35 36 37 38 39 40 41 42 43 44 45 46 47 48 49 50
000
ASUS43 KDTX 242210
RWRMI
MICHIGAN HOURLY REGIONAL WEATHER ROUNDUP
NATIONAL WEATHER SERVICE DETROIT/PONTIAC MI
600 PM EDT THU JUL 24 2014

NOTE: "FAIR" INDICATES FEW OR NO CLOUDS BELOW 12,000 FEET WITH NO
SIGNIFICANT WEATHER AND/OR OBSTRUCTION TO VISIBILITY.

MIZ047>049-052>055-059>063-066>070-074>076-081>083-242300-
SOUTHEAST LOWER MICHIGAN

CITY           SKY/WX    TMP DP  RH WIND       PRES   REMARKS
ADRIAN         PTSUNNY   75  48  38 N8        30.06F
ALMA           CLOUDY    72  46  38 CALM      30.06F
ANN ARBOR      PTSUNNY   76  47  35 NE7       30.05F
BAD AXE        SUNNY     70  46  40 CALM      30.06F
DETROIT CITY   MOSUNNY   74  52  46 E8        30.05F
DETROIT        MOSUNNY   75  47  36 CALM      30.05F
FLINT          PTSUNNY   75  48  38 NW8       30.06F
GROSSE ILE     SUNNY     73  48  40 E9        30.04F
HILLSDALE      PTSUNNY   74  49  40 NE6       30.07F
HOWELL         PTSUNNY   73  47  39 N5        30.06F

CITY           SKY/WX    TMP DP  RH WIND       PRES   REMARKS
JACKSON        SUNNY     74  50  42 NE3       30.06F
LAMBERTVILLE   SUNNY     73  48  40 SE5       30.06F
LANSING        MOSUNNY   73  47  39 W3        30.07F
LAPEER         NOT AVBL
MASON          PTSUNNY   69  51  52 NE3       30.07F
MONROE         CLOUDY    72  50  46 E5        30.04F
MT. CLEMENS    MOSUNNY   73  55  53 E8        30.04F
PONTIAC        MOSUNNY   70  47  43 CALM      30.05F
PORT HOPE        N/A     68  50  52 E5        30.05F
PORT HURON     SUNNY     70  50  49 NE9       30.07F
TRI CITIES     PTSUNNY   73  48  41 CALM      30.06F
YPSILANTI      CLOUDY    77  47  34 N8        30.06F
$$
MIZ043>046-050>051-056>058-064>065-071>073-077>080-242300-
SOUTHWEST LOWER MICHIGAN

CITY           SKY/WX    TMP DP  RH WIND       PRES   REMARKS
BATTLE CREEK   MOSUNNY   74  49  41 N6        30.07F
BENTON HARBOR  SUNNY     66  50  56 N8        30.09F
BIG RAPIDS     SUNNY     75  46  35 NW6       30.06S
COLDWATER      SUNNY     74  49  40 CALM      30.07F
HOLLAND        SUNNY     70  50  49 W10       30.09F
GRAND RAPIDS   MOSUNNY   76  51  41 E7        30.07F
KALAMAZOO      PTSUNNY   74  48  39 CALM      30.07F
MARSHALL       CLOUDY    71  50  47 CALM      30.06F
MUSKEGON       MOSUNNY   70  44  39 W9        30.09F
$$
MIZ016>042-242300-
NORTHERN LOWER MICHIGAN

CITY           SKY/WX    TMP DP  RH WIND       PRES   REMARKS
ALPENA         MOSUNNY   74  50  42 VRB3      30.04F
BEAVER ISLAND  SUNNY     66  52  60 SW12      30.06F
BELLAIRE       SUNNY     70  46  40 W3        30.06S
CADILLAC       CLOUDY    72  51  47 NW5       30.06F
CHARLEVOIX     SUNNY     68  49  50 W9        30.10S
FRANKFORT      CLEAR     71  41  33 W3        30.07F
GAYLORD        SUNNY     69  46  43 W6        30.07F
GRAYLING       PTSUNNY   70  48  45 CALM      30.08S
HARBOR SPRINGS SUNNY     67  51  55 W6        30.07F
HOUGHTON LAKE  SUNNY     72  48  42 SW6       30.08S
MANISTEE       SUNNY     70  43  37 W7        30.09F
OSCODA         SUNNY     71  47  42 S7        30.05F
PELLSTON       SUNNY     69  51  52 W7        30.06F
TRAVERSE CITY  MOSUNNY   71  47  42 NE9       30.05F
$$
MIZ007>008-015-242300-
EASTERN UPPER MICHIGAN

CITY           SKY/WX    TMP DP  RH WIND       PRES   REMARKS
KINROSS        MOSUNNY   66  52  59 N10       30.04S
MACKINAC ISLAN SUNNY     65  55  68 SW6       30.05S
NEWBERRY       CLOUDY    71  53  52 W5        30.03F
S. S. MARIE    SUNNY     68  49  50 NW8       30.03F
$$
MIZ004>006-011>014-085-242300-
CENTRAL UPPER MICHIGAN

CITY           SKY/WX    TMP DP  RH WIND       PRES   REMARKS
MANISTIQUE     SUNNY     64  54  71 SW12      30.05S
ESCANABA       SUNNY     70  50  49 S12       30.07R
MENOMINEE      SUNNY     73  50  43 SW9G18    30.05S
SAWYER-GWINN   PTSUNNY   72  48  43 NE10      30.05S
$$
MIZ001>003-009>011-084-242300-
WESTERN UPPER MICHIGAN

CITY           SKY/WX    TMP DP  RH WIND       PRES   REMARKS
IRON MOUNTAIN  PTSUNNY   77  48  35 CALM      30.04S
HOUGHTON       SUNNY     72  47  40 W14       30.03F
COPPER HARBOR    N/A     69  54  58 N15       30.01F
$$

ABBREVIATIONS USED IN REMARKS
   TC - TEMPERATURE IN CELSIUS
  WCI - WIND CHILL INDEX
   HX - HEAT INDEX
  VSB - VISIBILITY




USA.gov is the U.S. government's official web portal to all federal, state and local government web resources and services.